C/2022 B4 ( Bok )

Japanese version
Home page
Updated on May 29, 2022

---------------------------------------------------------------------

* Profile

Discovery Date January 29, 2022
Magnitude 20.8 mag
Discoverer H. Groeller (Bok NEO Survey)

* Pictures

* Orbital Elements

Epoch 2022 Jan. 21.0 TT = JDT 2459600.5
T 2022 Jan. 29.89470 TT                                 Rudenko
q   1.3796657            (2000.0)            P               Q
z  +0.0025588      Peri.  152.95428     -0.69894308     -0.70611393
 +/-0.0000129      Node   340.66181     +0.57840152     -0.46477009
e   0.9964698      Incl.   20.04416     +0.42063078     -0.53422082
From 128 observations 2022 Jan. 29-Apr. 2, mean residual 0".5.

* Magnitudes Graph

        m1 = 20.0 + 5 log d + 10.0 log r

---------------------------------------------------------------------

The orbital elements are published on M.P.E.C. 2022-G109.
The magnitudes graphs are made with Comet for Windows.

---------------------------------------------------------------------

Copyright(C) Seiichi Yoshida (comet@aerith.net). All rights reserved.